Terug naar catalogus

ONEWEB-0230

ActiefCommunicatiePO
NORAD 48769·PAYLOAD·🇬🇧 United Kingdom

Gelanceerd May 28, 2021 vanaf Vostochny Cosmodrome

Loading…

Volgende Passages (komende 24 uur)

TLE

VersSource: CelesTrak SupGP

Epoch: Sep 15, 2026, 03:55 UTC

1 48769C 21045C   26258.16337222 -.00003379  00000+0 -89873-2 0  2583
2 48769  87.8987 241.2630 0002145  89.2099  18.9047 13.15549887    11

Volg ONEWEB-0230 in realtime met AllMySat

Download on the App Store